Regional Weather Roundup
Issued by NWS Jackson, KY

Home | Current Version | Previous Version | Text Only | Print | Product List | Glossary Off
Versions: 1 2 3 4 5 6 7 8 9 10 11 12 13 14 15 16 17 18 19 20 21 22 23 24 25 26 27 28 29 30 31 32 33 34 35 36 37 38 39 40 41 42 43 44 45 46 47 48 49 50

000
ASUS43 KJKL 232310
RWRJKL

EAST KENTUCKY HOURLY WEATHER ROUNDUP
NATIONAL WEATHER SERVICE JACKSON KY
700 PM EDT MON MAY 23 2016

NOTE: "FAIR" INDICATES FEW OR NO CLOUDS BELOW 12,000 FEET WITH
NO SIGNIFICANT WEATHER AND/OR OBSTRUCTIONS TO VISIBILITY.

* THESE REPORTS ARE NOT UNDER NWS QUALITY CONTROL AND MAY NOT
  REPORT WEATHER SUCH AS PRECIPITATION AND FOG.

KYZ079-080-083-085-087-088-110-112-115-119-120-240000
...EASTERN KENTUCKY...

CITY           SKY/WX    TMP DP  RH WIND       PRES   REMARKS
JACKSON        SUNNY     71  50  47 CALM      30.03S
LONDON         SUNNY     73  46  38 NE7       30.01S
SOMERSET*      MOSUNNY   73  45  35 E5        30.02R
MONTICELLO*    SUNNY     75  47  36 N13       30.02R
WILLIAMSBURG*  CLEAR     72  46  40 CALM      30.01R
MIDDLESBORO*   SUNNY     74  48  38 N3        30.00S
HARLAN APT*      N/A     72  43  35 CALM      30.02S
HAZARD APT*    PTCLDY    72  48  43 CALM      30.02F
BLACK MTN*       N/A     59  46  63 N5          N/A
PIKE CO APT*     N/A     68  50  51 CALM      30.03S
BIG SANDY APT* CLEAR     71  48  43 CALM      30.03R
MOREHEAD APT*  CLEAR     73  48  40 CALM      30.03S
ASHLAND*       MOSUNNY   75  50  41 CALM      29.99R
$$

KYZ035-036-041-042-044-050-067-078-099-240000
...CENTRAL KENTUCKY...

CITY           SKY/WX    TMP DP  RH WIND       PRES   REMARKS
MT STERLING*   SUNNY     73  50  43 CALM      30.03S
FLEMING/MASON* SUNNY     73  49  42 E3        30.02S
DANVILLE*      SUNNY     73  50  43 NE3       30.02S
RICHMOND*      SUNNY     75  48  38 E5        30.01R
LEXINGTON      SUNNY     75  48  38 N5        30.02R
FRANKFORT      SUNNY     75  46  35 SE3       30.00S
LOUISVILLE     SUNNY     78  43  28 CALM      29.98S
LEBANON*         N/A     75  48  38 E3        30.01S
GLASGOW*       SUNNY     77  43  30 E3        29.98F
BOWLING GREEN  SUNNY     79  48  33 E6        29.97F
$$

KYZ091>093-OHZ055-061-077-WVZ005-015-034-035-042-240000
...SOUTHERN OHIO/WEST VIRGINIA...

CITY           SKY/WX    TMP DP  RH WIND       PRES   REMARKS
COVINGTON      MOSUNNY   76  47  35 CALM      30.00S
COLUMBUS       MOSUNNY   75  48  38 CALM      29.99R
DAYTON         MOSUNNY   74  46  36 CALM      30.01S
WILMINGTON     SUNNY     74  48  39 S6        30.01S
HUNTINGTON       N/A     71  50  47 W3        30.00S
CHARLESTON       N/A     74  51  44 VRB5      30.00S
PINEVILLE*     CLOUDY    63  54  73 MISG      30.08S
BECKLEY        PTSUNNY   66  46  48 NW6       30.04S
BLUEFIELD      LGT RAIN  55  51  86 W7        30.07S
LOGAN CO APT*    N/A     70  48  46 CALM      30.02S
$$

VAZ002-007-008-TNZ017-027-036-066-071-240000
...SOUTHWEST VIRGINIA/EAST TENNESSEE...

CITY           SKY/WX    TMP DP  RH WIND       PRES   REMARKS
WISE*          PTSUNNY   68  39  34 NE5       30.07F
JONESVILLE*      N/A     73  46  38 CALM      30.03S
ABINGDON*      CLOUDY    66  49  53 CALM      30.05S
BRISTOL        PTSUNNY   69  49  48 CALM      30.03R
SEVIERVILLE*   CLEAR     73  46  38 NE3       29.99S
KNOXVILLE      MOSUNNY   75  45  34 E6        29.98F
OAK RIDGE      SUNNY     77  41  27 E3        29.99S
CROSSVILLE     SUNNY     75  44  33 N6        30.02R
NASHVILLE      MOSUNNY   82  45  27 N8        29.97R
$$

...KEY TO REMARKS...
VSB - VISIBILITY IN MILES
WCI - WIND CHILL INDEX
HX  - HEAT INDEX

$$



USA.gov is the U.S. government's official web portal to all federal, state and local government web resources and services.